Location: Colconda
(10.2500°N, 61.4333°W)
Time: 13:41:26
(UTC+00:00)

Daily predictions for brighter satellites

Satellite Brightness Start Highest point End
(mag) Time Altitude Azimuth Time Altitude Azimuth Time Altitude Azimuth
BREEZE-M DEB (TANK) 4.4 22:27:03 10° NNW 22:31:53 68° ENE 22:53:30 10° SE
CZ-3C R/B 2.6 22:24:48 10° WNW 22:36:51 43° N 22:40:04 10° ENE
PSLV R/B 4.3 22:34:24 10° SSW 22:37:03 25° SE 22:39:43 10° ENE
Cosmos 1707 3.6 22:33:48 10° NNE 22:37:11 29° E 22:40:33 10° SE
USA 215 3.3 22:31:56 10° NE 22:38:26 78° SE 22:44:57 10° SSW
Cosmos 1766 3.4 22:37:14 10° SSE 22:40:58 47° E 22:44:41 10° NNE
METEOR-M 4.4 22:37:42 10° SSE 22:42:48 47° ENE 22:47:52 10° N
Gbstr 26 Del rocket 4.0 22:40:19 10° NW 22:43:53 42° SW 22:47:50 10° SSE
Meteor 2-5 Rocket 4.1 22:38:26 10° NNE 22:43:56 44° E 22:49:32 10° SSE
Ariane 42L R/B 1.9 22:41:34 10° WSW 22:44:05 45° S 22:46:14 11° ESE
COSMOS 2406 4.0 22:42:22 10° NNE 22:47:18 30° ENE 22:52:12 10° SE
GPS 2-12 Rocket1 3.7 22:43:35 10° SW 22:48:06 43° SSE 22:52:06 12° E
ISS -2.6 22:52:57 10° SW 22:56:02 42° NW 22:59:07 10° NNE
Cosmos 2112 Rocket 4.0 22:53:04 10° NNW 22:58:18 88° W 23:03:29 10° SSE
Cosmos 1125 Rocket 3.5 22:56:36 10° S 23:01:42 60° ESE 23:06:48 10° NNE
Timation 1 Rocket 4.4 22:58:35 10° SSW 23:04:35 83° WNW 23:10:35 10° NNE
Cosmos 1934 Rocket 4.1 22:58:33 10° S 23:04:47 80° W 23:10:55 10° N
ASC 2 Rocket 4.2 22:56:03 10° WSW 23:05:04 84° SSE 23:09:53 16° ENE
NOSS 3-4 (A) 3.9 23:01:03 10° NNW 23:08:31 84° ENE 23:16:17 10° SSE
NOSS 3-4 (C) 3.9 23:01:09 10° NNW 23:08:37 83° ENE 23:16:24 10° SSE
FREGAT/IRIS 2.5 23:10:40 10° S 23:13:45 88° W 23:16:48 10° N
Cosmos 1805 3.1 23:10:47 10° S 23:14:38 66° E 23:18:28 10° N
Ariane H10+ 3.9 23:09:25 10° WSW 23:15:37 64° SSE 23:30:02 22° E
ARIANE 5 DEB (SYLDA) 3.8 23:19:10 10° SW 23:20:20 17° S 23:20:20 17° S
HJ-1C 3.4 23:19:46 22° SSE 23:21:41 55° ENE 23:24:59 10° N
SeaSat 1 3.1 23:23:13 30° E 23:24:20 33° ENE 23:28:43 10° N
SJ-6B 3.0 23:24:38 10° S 23:28:23 65° WSW 23:32:05 10° NNW
In-Cosmos 22 4.4 23:26:10 10° NNE 23:31:04 40° E 23:32:12 35° ESE
Mugunghwa Rocket 4.2 23:25:11 10° WSW 23:31:24 62° NNW 23:35:28 23° NE
FENGYUN 3A 3.5 23:26:05 10° SSE 23:31:30 80° ENE 23:36:53 10° N
Delta 7925 Rocket 3.5 23:26:05 10° WSW 23:31:52 74° NNW 23:34:08 32° NE
BREEZE-M DEB (TANK) 3.5 23:32:23 10° WSW 23:35:33 37° NW 23:36:24 28° N
FengYun 1-2 T 4.2 23:36:45 10° SSE 23:42:17 88° WSW 23:47:51 10° NNW
Resurs 01 Rocket 1.4 23:41:20 51° SE 23:42:19 70° ENE 23:46:41 10° N
Meteor 1-4 Rocket 3.5 23:39:02 10° SSW 23:42:25 46° W 23:45:46 10° N
Palapa 6 Rocket 3.9 23:37:51 10° WNW 23:44:58 76° SSW 23:46:56 45° SE
GMS 1 Rocket 4.2 23:41:35 10° WSW 23:45:14 72° SSW 23:45:14 72° SSW
Cosmos 2100 Rocket 4.0 23:41:16 10° S 23:47:21 57° E 23:53:30 10° NNE
ATLAS 5 CENTAUR R/B 3.4 23:43:53 10° SW 23:47:56 32° WNW 23:52:04 10° N
SWIFT 3.6 23:46:02 10° NW 23:49:34 30° N 23:49:34 30° N
Ariane H10+ 3.5 23:47:09 10° WSW 23:50:09 46° S 23:50:57 42° SSE
H-2A R/B 2.9 23:51:00 71° WNW 23:51:00 71° WNW 23:54:34 10° NNW
Cosmos 2098 Rocket 4.3 23:46:16 10° S 23:52:24 72° W 23:59:40 10° N
